    Orbital elements:
    2017 BM31                                                Earth MOID = 0.0648 AU
    Epoch 2023 Sept. 13.0 TT = JDT 2460200.5                Veres                   
    M 232.84061              (2000.0)            P               Q                  
    n   0.41402751     Peri.   96.09955     -0.65481812     +0.75102687             
    a   1.7828573      Node   132.62496     -0.73094767     -0.60081884             
    e   0.4933337      Incl.    6.60909     -0.19216853     -0.27381630             
    P   2.38           H   20.76          G   0.15           U   0                  
    Residuals in seconds of arc
    151008 W84  0.1+  0.2-    170710 H21  0.1-  0.0     170716 654  0.1+  0.0
    170127 F51  0.0   0.0     170710 H21  0.1-  0.0     170716 654  0.1+  0.0
    170127 F51  0.0   0.0     170710 H21  0.2-  0.0     170716 654  0.1+  0.1-
    170127 F51  0.0   0.0     170710 H21  0.1-  0.2-    170716 160  0.1+  0.1+
    170128 926  0.0   0.1+    170710 H21  0.1-  0.2-    170716 160  0.1+  0.1-
    170128 926  0.0   0.6-    170710 H21  0.0   0.1-    170716 160  0.0   0.1-
    170128 926  0.2-  0.6-    170710 H21  0.0   0.0     170717 H21  0.0   0.5+
    170128 291  0.3-  0.1-    170710 H21  0.0   0.0     170717 H21  0.2-  0.7+
    170128 291  0.0   0.0     170710 H21  0.0   0.1-    170717 H21  0.1-  0.4+
    170128 291  0.7-  0.1+    170710 H21  0.1-  0.1-    170717 H21  0.4-  0.9+
    170128 568  0.0   0.0     170710 K14  0.1+  0.3-    170717 H21  0.1+  0.5+
    170128 568  0.0   0.0     170710 K14  0.4+  0.0     170717 H21  0.1+  0.3+
    170128 568  0.0   0.0     170710 K14  0.6+  0.1+    170717 H21  0.1+  0.4+
    170128 K88  0.7+  0.0     170710 K14  0.5+  0.2-    170717 654  0.3+  0.1-
    170128 K88  0.5+  0.3+    170710 K14  0.5+  0.3-    170717 654  0.2+  0.1-
    170129 I52  0.2-  0.6+    170710 K14  0.2+  0.1-    170717 L04  0.1-  0.3+
    170129 I52  0.7-  0.7+    170710 K14  0.1+  0.0     170717 L04  0.1+  0.1+
    170129 I52  0.7-  0.3-    170710 K14  0.6+  0.1-    170717 L04  0.2+  0.0
    170129 I52  0.5-  0.1+    170710 K14  0.0   0.3+    170717 160  0.0   0.1+
    170129 I52  0.4-  0.6-    170710 K14  0.1+  0.1+    170717 160  0.1+  0.0
    170129 I52  0.5-  0.2-    170710 118  1.4+  1.2-    170717 160  0.5+  0.1-
    170129 I52  0.9-  0.2-    170710 118  1.1+  1.6-    170717 C23  0.2+  0.1-
    170129 691  0.4+  0.4-    170710 118  0.2+  1.6-    170717 C23  0.2+  0.1-
    170129 691 (1.3+  0.6-)   170710 118  1.0+  1.7-    170717 C23  0.1+  0.1+
    170129 691  0.9-  0.3-    170710 118  2.1+  0.6-    170718 H45  0.0   0.1-
    170130 691  0.3-  0.2-    170710 118  0.5+  1.6-    170718 H45  0.4+  0.3-
    170130 691  0.7-  0.5+    170710 118  1.0+  2.3-    170718 H45  0.1+  0.2-
    170201 I52  0.0   0.3+    170710 118  2.3+  1.9-    170718 H45  0.2-  0.1+
    170201 I52  0.2+  0.1-    170710 118  0.5+  1.6-    170718 H45  0.2+  0.1-
    170201 I52  0.1+  0.3+    170710 118  1.0+  1.6-    170718 H45  0.1+  0.1+
    170201 I52  0.3-  0.3-    170710 118  0.7+  1.9-    170718 H45  0.1+  0.1-
    170202 691 (1.1+  0.7-)   170710 118  1.3+  1.7-    170718 H45  0.0   0.1-
    170202 691  0.2-  0.5-    170710 118  1.7+  1.5-    170718 H21  0.1+  0.0
    170202 691  0.1-  0.1-    170710 118  0.3+  0.4-    170718 H21  0.1+  0.1+
    170224 705  0.2+  0.4+    170710 118  0.0   2.3-    170718 H21  0.1-  0.0
    170224 705  0.0   0.0     170710 118  1.1+  1.0-    170718 H21  0.2+  0.3+
    170224 705  0.8-  0.8-    170710 118  1.3+  1.4-    170718 H21  0.2+  0.2+
    170224 691  0.1+  0.1+    170710 118  0.4-  3.0-    170718 H21  0.3+  0.2+
    170224 691  0.4+  0.1+    170710 118  0.7+  0.7-    170718 160  0.2-  0.3+
    170224 691  0.7+  0.0     170711 K14  0.3+  0.3+    170718 160  0.0   0.2+
    170329 T12  0.0   0.0     170711 K14  0.0   0.1-    170718 160  0.2-  0.2+
    170329 T12  0.0   0.0     170711 K14  0.4+  0.1-    170719 160  0.2-  0.1-
    170331 T12  0.0   0.0     170711 K14  0.2+  0.1-    170719 160  0.2+  0.1-
    170331 T12  0.0   0.0     170711 K14  0.4-  0.3+    170720 H45  0.1-  0.0
    170423 291  0.3+  0.3-    170711 A53  0.0   0.1-    170720 H45  0.2-  0.0
    170423 291  0.3+  0.1+    170711 C77  0.3+  0.2-    170720 H45  0.2+  0.1+
    170423 291  0.4+  0.1-    170711 C77  0.2+  0.1-    170720 H45  0.3+  0.3-
    170619 I52 (2.1+  0.3-)   170711 A53  0.0   0.1-    170720 H45  0.2-  0.1+
    170619 I52 (1.3+  0.2-)   170711 C77  0.2+  0.1-    170720 H45  0.1-  0.1+
    170619 I52 (1.2+  0.0 )   170711 A53  0.0   0.2-    170720 H45  0.4-  0.3+
    170619 I52  0.6+  0.3-    170711 C77  0.0   0.1-    170720 H45  0.0   0.2-
    170625 204  0.0   0.1-    170711 A53  0.2-  0.4-    170723 H45  0.0   0.1+
    170625 204  0.1+  0.1-    170711 A53  0.3-  0.1-    170723 H45  0.1-  0.2-
    170625 204  0.2+  0.1-    170712 H21  0.1-  0.1+    170723 H45  0.5+  0.2+
    170627 H21  0.0   0.2-    170712 H21  0.3-  0.1+    170723 H45  0.1-  0.1+
    170627 H21  0.1+  0.1+    170712 H21  0.0   0.0     170723 H45  0.6-  0.1+
    170627 H21  0.1+  0.2+    170712 H21  0.1-  0.2-    170723 H45  0.3-  0.4+
    170628 G96  0.3+  0.1+    170712 H21  0.3-  0.0     170725 H21  0.1-  0.1+
    170628 G96  0.2+  0.1+    170712 H21  0.0   0.0     170725 H21  0.4-  0.2-
    170628 G96  0.2+  0.2+    170712 H21  0.2-  0.2-    170725 H21  0.1-  0.0
    170628 G96  0.3+  0.1+    170712 H21  0.1+  0.1+    170725 H21  0.2+  0.2+
    170629 T08  0.4-  0.4-    170712 H21  0.1-  0.0     170725 H21  0.2-  0.1+
    170629 T08  0.4+  0.2-    170712 H21  0.1+  0.0     170725 H21  0.1+  0.2+
    170629 T08  0.2-  0.2+    170712 H21  0.0   0.0     170725 H21  0.1+  0.2+
    170629 T08  0.3+  0.1+    170712 H21  0.0   0.0     170725 H45  0.0   0.1-
    170630 703  0.1+  0.1+    170712 H21  0.1-  0.1+    170725 H45  0.1-  0.2-
    170630 703  0.2-  0.1+    170712 H21  0.1-  0.0     170725 H45  0.2-  0.0
    170630 703  0.0   0.5+    170712 H21  0.0   0.1+    170725 H45  0.0   0.1+
    170630 703  0.0   0.2+    170712 H21  0.0   0.1-    170725 H45  0.6-  0.5-
    170702 H21  0.1-  0.1-    170712 H21  0.0   0.1+    170725 H45  0.5-  0.2-
    170702 H21  0.1-  0.1-    170712 H21  0.3-  0.0     170725 T08  0.4-  0.0
    170702 H21  0.2-  0.1-    170712 H21  0.2-  0.0     170725 T08  1.2-  0.5+
    170703 C51 (0.6-  0.3-)   170712 H21  0.2-  0.1-    170725 T08  0.2-  0.4+
    170703 C51  0.2-  0.4-    170712 H21  0.1-  0.0     170727 H45(14.2-  0.2-)
    170703 T08  0.2-  0.5-    170712 654  0.0   0.1-    170727 H45  0.2+  0.5-
    170703 T08  0.6-  0.3+    170712 654  0.1+  0.0     170727 H45  0.0   0.2-
    170703 T08  0.5-  0.6+    170712 654  0.1+  0.1-    170727 H45  0.1-  0.1-
    170703 T08  0.5-  0.2-    170712 654  0.1+  0.0     170727 H45  0.4+  0.1+
    170703 C51  0.7-  0.0     170712 K14  0.9+  0.4+    170727 H45  0.3+  0.3-
    170703 C51  0.3-  0.1+    170712 K14  1.6+  0.3+    170728 C23  0.1+  0.6-
    170703 Z80  0.1-  0.2-    170712 107  0.0   0.4-    170728 C23  0.3-  0.7-
    170703 Z80  0.1+  0.5-    170712 107  0.4-  0.5-    170728 C23  0.3+  0.9+
    170703 Z80  0.1-  0.1+    170712 K14  0.4+  0.4+    170729 654  0.0   0.0
    170703 Z80  0.1+  0.5+    170712 107  0.5-  0.3+    170729 654  0.1-  0.1-
    170703 Z80  0.0   0.1+    170712 107  0.3+  0.1-    170729 654  0.1+  0.1+
    170703 Z80  0.2-  0.1-    170712 K14  0.3+  0.1+    170729 654  0.1+  0.0
    170704 160  0.1+  0.3+    170712 K14  0.0   0.4+    170730 H45  0.4-  0.3+
    170704 160  0.2+  0.3+    170712 203  0.0   0.0     170730 H45  0.3-  0.2-
    170704 160  0.0   0.1-    170712 C23  0.2-  0.2+    170730 H45  0.2+  0.1-
    170705 T05  0.0   0.2-    170712 C23  0.4+  0.3+    170730 H45  0.0   0.1-
    170705 T05  0.5+  0.5-    170712 C23  0.2-  0.6+    170730 H45  0.7-  0.2-
    170705 T05  0.2+  0.5-    170713 203  0.1-  0.2+    170730 H45  0.0   0.4+
    170705 T05  0.3-  0.1+    170713 T08  0.0   0.2+    170731 654  0.0   0.1+
    170705 160  0.1+  0.2+    170713 T08  0.1-  0.0     170731 654  0.1-  0.0
    170705 160  0.1+  0.3+    170713 T08  0.0   0.2-    170731 654  0.0   0.1+
    170705 160  0.2+  0.2-    170713 A48  0.1-  0.0     170731 654  0.2+  0.0
    170706 654  0.0   0.0     170713 A48  0.4-  0.1+    170801 T08  0.2+  0.2+
    170706 654  0.1+  0.1-    170713 A48  0.2-  0.3+    170801 T08  0.6-  0.1-
    170706 654  0.3+  0.2-    170713 A48  0.2+  0.4-    170801 T08  0.7-  0.9-
    170706 654  0.1+  0.0     170714 160  0.0   0.1-    170801 T08  0.5-  0.8-
    170707 203  0.1-  0.0     170714 160  0.1-  0.1+    170824 F51  0.1+  0.0
    170707 203  0.2-  0.0     170714 160  0.1-  0.2+    170824 F51  0.2+  0.0
    170708 T05  0.2-  0.2+    170714 C23  0.0   0.2+    170824 F51  0.2+  0.1+
    170708 T05  0.1-  0.1-    170714 C23  0.1+  0.5+    170824 F51  0.2+  0.1+
    170708 T05  0.1-  0.1-    170714 C23  0.3+  0.1+    170912 807 (1.0-  0.2-)
    170708 T05  0.0   0.0     170715 H21  0.0   0.1+    170912 807  0.5-  0.3-
    170708 Z80  0.3+  0.7-    170715 H21  0.2+  0.1+    170912 807  0.1-  0.0
    170708 Z80  0.6+  0.1-    170715 H21  0.0   0.0     181207 T09  0.1-  0.3+
    170708 Z80  0.5+  0.1-    170715 H21  0.2-  0.1-    181207 T09  0.1+  0.4+
    170708 Z80  0.2+  0.3-    170715 H21  0.1+  0.1+    181208 T09  0.4-  0.3+
    170708 Z80  0.2-  0.4-    170715 H21  0.1+  0.1+    181208 T09  0.0   0.2+
    170708 Z80  0.4+  0.1-    170715 H21  0.1-  0.1-    220923 F52  0.0   0.3+
    170710 I15  0.0   0.1-    170715 T05  0.1+  0.0     220923 F52  0.1+  0.0
    170710 I15  0.0   0.1-    170715 T05  0.2-  0.1+    220923 F52  0.1-  0.1+
    170710 I15  0.2-  0.1-    170715 T05  0.1-  0.1-    220923 F52  0.0   0.2+
    170710 H21  0.2-  0.0     170715 107  0.3+  0.1-    220927 F51  0.4-  0.1-
    170710 H21  0.1-  0.1-    170715 107  0.1-  0.1+    220927 F51  0.2-  0.3-
    170710 H21  0.0   0.1-    170715 107  0.4+  0.1+    220927 F51  0.4+  0.3-
    170710 H21  0.1-  0.0     170716 654  0.0   0.1-    220927 F51  0.1+  0.2-
    170710 H21  0.1-  0.1-    170716 654  0.1+  0.0
    170710 H21  0.1-  0.1-    170716 654  0.0   0.0
    
